Year,Month,Day,Hour,Minute,Value (Times are PST for windgust in km/hr)
2016,08,22,00,00,12.90
2016,08,22,00,01,16.10
2016,08,22,00,02,12.90
2016,08,22,00,03,17.70
2016,08,22,00,04,16.10
2016,08,22,00,05,17.70
2016,08,22,00,06,22.50
2016,08,22,00,07,25.70
2016,08,22,00,08,22.50
2016,08,22,00,09,22.50
2016,08,22,00,10,14.50
2016,08,22,00,11,12.90
2016,08,22,00,12,19.30
2016,08,22,00,13,19.30
2016,08,22,00,14,17.70
2016,08,22,00,15,20.90
2016,08,22,00,16,12.90
2016,08,22,00,17,20.90
2016,08,22,00,18,14.50
2016,08,22,00,19,14.50
2016,08,22,00,20,14.50
2016,08,22,00,21,17.70
2016,08,22,00,22,16.10
2016,08,22,00,23,12.90
2016,08,22,00,24,16.10
2016,08,22,00,25,14.50
2016,08,22,00,26,11.30
2016,08,22,00,27,12.90
2016,08,22,00,28,14.50
2016,08,22,00,29,14.50
2016,08,22,00,30,17.70
2016,08,22,00,31,16.10
2016,08,22,00,32,8.10
2016,08,22,00,33,9.60
2016,08,22,00,34,16.10
2016,08,22,00,35,14.50
2016,08,22,00,36,12.90
2016,08,22,00,37,17.70
2016,08,22,00,38,16.10
2016,08,22,00,39,12.90
2016,08,22,00,40,6.40
2016,08,22,00,41,12.90
2016,08,22,00,42,8.10
2016,08,22,00,43,11.30
2016,08,22,00,44,12.90
2016,08,22,00,45,12.90
2016,08,22,00,46,12.90
2016,08,22,00,47,9.60
2016,08,22,00,48,8.10
2016,08,22,00,49,8.10
2016,08,22,00,50,6.40
2016,08,22,00,51,9.60
2016,08,22,00,52,6.40
2016,08,22,00,53,4.80
2016,08,22,00,54,4.80
2016,08,22,00,55,4.80
2016,08,22,00,56,4.80
2016,08,22,00,57,6.40
2016,08,22,00,58,3.20
2016,08,22,00,59,6.40
2016,08,22,01,00,3.20
2016,08,22,01,01,1.60
2016,08,22,01,02,4.80
2016,08,22,01,03,4.80
2016,08,22,01,04,1.60
2016,08,22,01,05,3.20
2016,08,22,01,06,4.80
2016,08,22,01,07,6.40
2016,08,22,01,08,4.80
2016,08,22,01,09,6.40
2016,08,22,01,10,4.80
2016,08,22,01,11,11.30
2016,08,22,01,12,12.90
2016,08,22,01,13,9.60
2016,08,22,01,14,4.80
2016,08,22,01,15,6.40
2016,08,22,01,16,8.10
2016,08,22,01,17,6.40
2016,08,22,01,18,8.10
2016,08,22,01,19,6.40
2016,08,22,01,20,6.40
2016,08,22,01,21,8.10
2016,08,22,01,22,4.80
2016,08,22,01,23,4.80
2016,08,22,01,24,1.60
2016,08,22,01,25,3.20
2016,08,22,01,26,3.20
2016,08,22,01,27,3.20
2016,08,22,01,28,3.20
2016,08,22,01,29,1.60
2016,08,22,01,30,1.60
2016,08,22,01,31,1.60
2016,08,22,01,32,1.60
2016,08,22,01,33,3.20
2016,08,22,01,34,3.20
2016,08,22,01,35,1.60
2016,08,22,01,36,1.60
2016,08,22,01,37,4.80
2016,08,22,01,38,4.80
2016,08,22,01,39,4.80
2016,08,22,01,40,3.20
2016,08,22,01,41,4.80
2016,08,22,01,42,6.40
2016,08,22,01,43,6.40
2016,08,22,01,44,6.40
2016,08,22,01,45,8.10
2016,08,22,01,46,8.10
2016,08,22,01,47,6.40
2016,08,22,01,48,4.80
2016,08,22,01,49,6.40
2016,08,22,01,50,9.60
2016,08,22,01,51,8.10
2016,08,22,01,52,6.40
2016,08,22,01,53,6.40
2016,08,22,01,54,11.30
2016,08,22,01,55,8.10
2016,08,22,01,56,9.60
2016,08,22,01,57,11.30
2016,08,22,01,58,11.30
2016,08,22,01,59,8.10
2016,08,22,02,00,11.30
2016,08,22,02,01,8.10
2016,08,22,02,02,6.40
2016,08,22,02,03,6.40
2016,08,22,02,04,6.40
2016,08,22,02,05,4.80
2016,08,22,02,06,8.10
2016,08,22,02,07,6.40
2016,08,22,02,08,6.40
2016,08,22,02,09,4.80
2016,08,22,02,10,4.80
2016,08,22,02,11,6.40
2016,08,22,02,12,6.40
2016,08,22,02,13,4.80
2016,08,22,02,14,6.40
2016,08,22,02,15,8.10
2016,08,22,02,16,6.40
2016,08,22,02,17,8.10
2016,08,22,02,18,6.40
2016,08,22,02,19,4.80
2016,08,22,02,20,4.80
2016,08,22,02,21,6.40
2016,08,22,02,22,6.40
2016,08,22,02,23,4.80
2016,08,22,02,24,3.20
2016,08,22,02,25,4.80
2016,08,22,02,26,4.80
2016,08,22,02,27,4.80
2016,08,22,02,28,3.20
2016,08,22,02,29,6.40
2016,08,22,02,30,6.40
2016,08,22,02,31,6.40
2016,08,22,02,32,4.80
2016,08,22,02,33,4.80
2016,08,22,02,34,3.20
2016,08,22,02,35,4.80
2016,08,22,02,36,4.80
2016,08,22,02,37,4.80
2016,08,22,02,38,4.80
2016,08,22,02,39,6.40
2016,08,22,02,40,6.40
2016,08,22,02,41,6.40
2016,08,22,02,42,4.80
2016,08,22,02,43,4.80
2016,08,22,02,44,4.80
2016,08,22,02,45,6.40
2016,08,22,02,46,6.40
2016,08,22,02,47,6.40
2016,08,22,02,48,4.80
2016,08,22,02,49,9.60
2016,08,22,02,50,9.60
2016,08,22,02,51,9.60
2016,08,22,02,52,3.20
2016,08,22,02,53,3.20
2016,08,22,02,54,3.20
2016,08,22,02,55,8.10
2016,08,22,02,56,6.40
2016,08,22,02,57,3.20
2016,08,22,02,58,6.40
2016,08,22,02,59,6.40
2016,08,22,03,00,6.40
2016,08,22,03,01,4.80
2016,08,22,03,02,6.40
2016,08,22,03,03,6.40
2016,08,22,03,05,4.80
2016,08,22,03,06,4.80
2016,08,22,03,07,4.80
2016,08,22,03,08,4.80
2016,08,22,03,09,4.80
2016,08,22,03,10,3.20
2016,08,22,03,11,4.80
2016,08,22,03,12,4.80
2016,08,22,03,13,4.80
2016,08,22,03,14,4.80
2016,08,22,03,15,4.80
2016,08,22,03,16,3.20
2016,08,22,03,17,4.80
2016,08,22,03,18,4.80
2016,08,22,03,19,4.80
2016,08,22,03,20,6.40
2016,08,22,03,21,9.60
2016,08,22,03,22,6.40
2016,08,22,03,23,9.60
2016,08,22,03,24,11.30
2016,08,22,03,25,9.60
2016,08,22,03,26,6.40
2016,08,22,03,27,9.60
2016,08,22,03,28,9.60
2016,08,22,03,29,6.40
2016,08,22,03,30,11.30
2016,08,22,03,31,11.30
2016,08,22,03,32,9.60
2016,08,22,03,33,12.90
2016,08,22,03,34,12.90
2016,08,22,03,35,9.60
2016,08,22,03,36,11.30
2016,08,22,03,37,11.30
2016,08,22,03,38,9.60
2016,08,22,03,39,14.50
2016,08,22,03,40,12.90
2016,08,22,03,41,11.30
2016,08,22,03,42,14.50
2016,08,22,03,43,11.30
2016,08,22,03,44,9.60
2016,08,22,03,45,11.30
2016,08,22,03,46,9.60
2016,08,22,03,47,11.30
2016,08,22,03,48,12.90
2016,08,22,03,49,11.30
2016,08,22,03,50,8.10
2016,08,22,03,51,8.10
2016,08,22,03,52,6.40
2016,08,22,03,53,4.80
2016,08,22,03,54,6.40
2016,08,22,03,55,11.30
2016,08,22,03,56,6.40
2016,08,22,03,57,8.10
2016,08,22,03,58,6.40
2016,08,22,03,59,6.40
2016,08,22,04,00,3.20
2016,08,22,04,01,6.40
2016,08,22,04,02,6.40
2016,08,22,04,03,6.40
2016,08,22,04,04,8.10
2016,08,22,04,05,6.40
2016,08,22,04,06,6.40
2016,08,22,04,07,6.40
2016,08,22,04,08,4.80
2016,08,22,04,09,8.10
2016,08,22,04,10,8.10
2016,08,22,04,11,6.40
2016,08,22,04,12,8.10
2016,08,22,04,13,8.10
2016,08,22,04,14,4.80
2016,08,22,04,15,6.40
2016,08,22,04,16,6.40
2016,08,22,04,17,6.40
2016,08,22,04,18,6.40
2016,08,22,04,19,6.40
2016,08,22,04,20,6.40
2016,08,22,04,21,4.80
2016,08,22,04,22,6.40
2016,08,22,04,23,4.80
2016,08,22,04,24,6.40
2016,08,22,04,25,4.80
2016,08,22,04,26,4.80
2016,08,22,04,27,4.80
2016,08,22,04,28,4.80
2016,08,22,04,29,3.20
2016,08,22,04,30,4.80
2016,08,22,04,31,4.80
2016,08,22,04,32,4.80
2016,08,22,04,33,4.80
2016,08,22,04,34,6.40
2016,08,22,04,35,6.40
2016,08,22,04,36,6.40
2016,08,22,04,37,4.80
2016,08,22,04,38,4.80
2016,08,22,04,39,4.80
2016,08,22,04,40,4.80
2016,08,22,04,41,6.40
2016,08,22,04,42,6.40
2016,08,22,04,43,6.40
2016,08,22,04,44,6.40
2016,08,22,04,45,9.60
2016,08,22,04,46,9.60
2016,08,22,04,47,9.60
2016,08,22,04,48,9.60
2016,08,22,04,49,9.60
2016,08,22,04,50,9.60
2016,08,22,04,51,6.40
2016,08,22,04,52,6.40
2016,08,22,04,53,9.60
2016,08,22,04,54,6.40
2016,08,22,04,55,9.60
2016,08,22,04,56,6.40
2016,08,22,04,57,6.40
2016,08,22,04,58,6.40
2016,08,22,04,59,4.80
2016,08,22,05,00,6.40
2016,08,22,05,01,6.40
2016,08,22,05,02,4.80
2016,08,22,05,03,4.80
2016,08,22,05,04,6.40
2016,08,22,05,05,4.80
2016,08,22,05,06,3.20
2016,08,22,05,07,4.80
2016,08,22,05,08,4.80
2016,08,22,05,09,3.20
2016,08,22,05,10,1.60
2016,08,22,05,11,3.20
2016,08,22,05,18,3.20
2016,08,22,05,19,3.20
2016,08,22,05,20,6.40
2016,08,22,05,21,6.40
2016,08,22,05,22,4.80
2016,08,22,05,23,1.60
2016,08,22,05,24,3.20
2016,08,22,05,26,1.60
2016,08,22,05,28,1.60
2016,08,22,05,29,1.60
2016,08,22,05,30,3.20
2016,08,22,05,31,3.20
2016,08,22,05,32,3.20
2016,08,22,05,33,1.60
2016,08,22,05,34,1.60
2016,08,22,05,36,4.80
2016,08,22,05,37,4.80
2016,08,22,05,38,6.40
2016,08,22,05,39,6.40
2016,08,22,05,40,9.60
2016,08,22,05,41,6.40
2016,08,22,05,42,6.40
2016,08,22,05,43,6.40
2016,08,22,05,44,4.80
2016,08,22,05,45,6.40
2016,08,22,05,46,6.40
2016,08,22,05,47,6.40
2016,08,22,05,48,6.40
2016,08,22,05,49,6.40
2016,08,22,05,50,9.60
2016,08,22,05,51,9.60
2016,08,22,05,52,6.40
2016,08,22,05,53,6.40
2016,08,22,05,54,6.40
2016,08,22,05,55,6.40
2016,08,22,05,56,4.80
2016,08,22,05,57,6.40
2016,08,22,05,58,6.40
2016,08,22,05,59,4.80
2016,08,22,06,00,6.40
2016,08,22,06,01,6.40
2016,08,22,06,02,9.60
2016,08,22,06,03,6.40
2016,08,22,06,04,6.40
2016,08,22,06,05,6.40
2016,08,22,06,06,6.40
2016,08,22,06,07,6.40
2016,08,22,06,08,6.40
2016,08,22,06,09,6.40
2016,08,22,06,10,9.60
2016,08,22,06,11,9.60
2016,08,22,06,12,9.60
2016,08,22,06,13,11.30
2016,08,22,06,14,9.60
2016,08,22,06,15,9.60
2016,08,22,06,16,9.60
2016,08,22,06,17,6.40
2016,08,22,06,18,8.10
2016,08,22,06,19,6.40
2016,08,22,06,20,6.40
2016,08,22,06,21,8.10
2016,08,22,06,22,6.40
2016,08,22,06,23,8.10
2016,08,22,06,24,6.40
2016,08,22,06,25,8.10
2016,08,22,06,26,8.10
2016,08,22,06,27,8.10
2016,08,22,06,28,9.60
2016,08,22,06,29,9.60
2016,08,22,06,30,6.40
2016,08,22,06,31,6.40
2016,08,22,06,32,6.40
2016,08,22,06,33,8.10
2016,08,22,06,34,6.40
2016,08,22,06,35,6.40
2016,08,22,06,36,8.10
2016,08,22,06,37,8.10
2016,08,22,06,38,8.10
2016,08,22,06,39,6.40
2016,08,22,06,40,8.10
2016,08,22,06,41,6.40
2016,08,22,06,42,11.30
2016,08,22,06,43,9.60
2016,08,22,06,44,9.60
2016,08,22,06,45,9.60
2016,08,22,06,46,9.60
2016,08,22,06,47,6.40
2016,08,22,06,48,6.40
2016,08,22,06,49,6.40
2016,08,22,06,50,6.40
2016,08,22,06,51,6.40
2016,08,22,06,52,9.60
2016,08,22,06,53,9.60
2016,08,22,06,54,6.40
2016,08,22,06,55,6.40
2016,08,22,06,56,6.40
2016,08,22,06,57,6.40
2016,08,22,06,58,6.40
2016,08,22,06,59,9.60
2016,08,22,07,00,4.80
2016,08,22,07,01,6.40
2016,08,22,07,02,4.80
2016,08,22,07,03,6.40
2016,08,22,07,04,4.80
2016,08,22,07,05,6.40
2016,08,22,07,06,6.40
2016,08,22,07,07,6.40
2016,08,22,07,08,6.40
2016,08,22,07,09,6.40
2016,08,22,07,10,6.40
2016,08,22,07,11,6.40
2016,08,22,07,12,6.40
2016,08,22,07,13,4.80
2016,08,22,07,14,6.40
2016,08,22,07,15,8.10
2016,08,22,07,16,6.40
2016,08,22,07,17,6.40
2016,08,22,07,18,6.40
2016,08,22,07,19,6.40
2016,08,22,07,20,8.10
2016,08,22,07,21,6.40
2016,08,22,07,22,6.40
2016,08,22,07,23,6.40
2016,08,22,07,24,6.40
2016,08,22,07,25,6.40
2016,08,22,07,26,6.40
2016,08,22,07,27,8.10
2016,08,22,07,28,6.40
2016,08,22,07,29,6.40
2016,08,22,07,30,6.40
2016,08,22,07,31,4.80
2016,08,22,07,32,4.80
2016,08,22,07,33,4.80
2016,08,22,07,34,4.80
2016,08,22,07,35,4.80
2016,08,22,07,36,6.40
2016,08,22,07,37,4.80
2016,08,22,07,38,3.20
2016,08,22,07,39,4.80
2016,08,22,07,40,11.30
2016,08,22,07,41,4.80
2016,08,22,07,42,6.40
2016,08,22,07,43,6.40
2016,08,22,07,44,6.40
2016,08,22,07,45,3.20
2016,08,22,07,46,4.80
2016,08,22,07,47,6.40
2016,08,22,07,48,6.40
2016,08,22,07,49,6.40
2016,08,22,07,50,4.80
2016,08,22,07,51,4.80
2016,08,22,07,52,4.80
2016,08,22,07,53,6.40
2016,08,22,07,54,8.10
2016,08,22,07,55,4.80
2016,08,22,07,56,6.40
2016,08,22,07,57,6.40
2016,08,22,07,58,6.40
2016,08,22,07,59,11.30
2016,08,22,08,00,8.10
2016,08,22,08,01,6.40
2016,08,22,08,02,6.40
2016,08,22,08,03,9.60
2016,08,22,08,04,12.90
2016,08,22,08,05,11.30
2016,08,22,08,06,8.10
2016,08,22,08,07,6.40
2016,08,22,08,08,6.40
2016,08,22,08,09,8.10
2016,08,22,08,10,4.80
2016,08,22,08,11,4.80
2016,08,22,08,12,8.10
2016,08,22,08,13,6.40
2016,08,22,08,14,4.80
2016,08,22,08,15,4.80
2016,08,22,08,16,6.40
2016,08,22,08,17,4.80
2016,08,22,08,18,4.80
2016,08,22,08,19,8.10
2016,08,22,08,20,6.40
2016,08,22,08,21,8.10
2016,08,22,08,22,6.40
2016,08,22,08,23,9.60
2016,08,22,08,24,8.10
2016,08,22,08,25,9.60
2016,08,22,08,26,8.10
2016,08,22,08,27,8.10
2016,08,22,08,28,9.60
2016,08,22,08,29,8.10
2016,08,22,08,30,11.30
2016,08,22,08,31,9.60
2016,08,22,08,32,6.40
2016,08,22,08,33,8.10
2016,08,22,08,34,6.40
2016,08,22,08,35,4.80
2016,08,22,08,36,4.80
2016,08,22,08,37,11.30
2016,08,22,08,38,6.40
2016,08,22,08,39,8.10
2016,08,22,08,40,8.10
2016,08,22,08,41,8.10
2016,08,22,08,42,6.40
2016,08,22,08,43,8.10
2016,08,22,08,44,4.80
2016,08,22,08,45,12.90
2016,08,22,08,46,8.10
2016,08,22,08,47,9.60
2016,08,22,08,48,12.90
2016,08,22,08,49,9.60
2016,08,22,08,50,11.30
2016,08,22,08,51,11.30
2016,08,22,08,52,9.60
2016,08,22,08,53,14.50
2016,08,22,08,54,4.80
2016,08,22,08,55,4.80
2016,08,22,08,56,9.60
2016,08,22,08,57,11.30
2016,08,22,08,58,8.10
2016,08,22,08,59,12.90
2016,08,22,09,00,8.10
2016,08,22,09,01,8.10
2016,08,22,09,02,4.80
2016,08,22,09,03,12.90
2016,08,22,09,04,11.30
2016,08,22,09,05,9.60
2016,08,22,09,06,12.90
2016,08,22,09,07,16.10
2016,08,22,09,08,9.60
2016,08,22,09,09,9.60
2016,08,22,09,10,8.10
2016,08,22,09,11,14.50
2016,08,22,09,12,14.50
2016,08,22,09,13,17.70
2016,08,22,09,14,12.90
2016,08,22,09,15,14.50
2016,08,22,09,16,12.90
2016,08,22,09,17,11.30
2016,08,22,09,18,14.50
2016,08,22,09,19,9.60
2016,08,22,09,20,14.50
2016,08,22,09,21,16.10
2016,08,22,09,22,14.50
2016,08,22,09,23,12.90
2016,08,22,09,24,16.10
2016,08,22,09,25,16.10
2016,08,22,09,26,14.50
2016,08,22,09,27,14.50
2016,08,22,09,28,9.60
2016,08,22,09,29,8.10
2016,08,22,09,30,12.90
2016,08,22,09,31,12.90
2016,08,22,09,32,9.60
2016,08,22,09,33,14.50
2016,08,22,09,34,17.70
2016,08,22,09,35,16.10
2016,08,22,09,36,16.10
2016,08,22,09,37,14.50
2016,08,22,09,38,12.90
2016,08,22,09,39,16.10
2016,08,22,09,40,14.50
2016,08,22,09,41,14.50
2016,08,22,09,42,8.10
2016,08,22,09,43,6.40
2016,08,22,09,44,8.10
2016,08,22,09,45,11.30
2016,08,22,09,46,17.70
2016,08,22,09,47,12.90
2016,08,22,09,48,16.10
2016,08,22,09,49,16.10
2016,08,22,09,50,16.10
2016,08,22,09,51,16.10
2016,08,22,09,52,16.10
2016,08,22,09,53,14.50
2016,08,22,09,54,12.90
2016,08,22,09,55,19.30
2016,08,22,09,56,14.50
2016,08,22,09,57,16.10
2016,08,22,09,58,17.70
2016,08,22,09,59,16.10
2016,08,22,10,00,22.50
2016,08,22,10,01,14.50
2016,08,22,10,02,16.10
2016,08,22,10,03,19.30
2016,08,22,10,04,9.60
2016,08,22,10,05,12.90
2016,08,22,10,06,14.50
2016,08,22,10,07,12.90
2016,08,22,10,08,14.50
2016,08,22,10,09,14.50
2016,08,22,10,10,20.90
2016,08,22,10,11,22.50
2016,08,22,10,12,19.30
2016,08,22,10,13,19.30
2016,08,22,10,14,22.50
2016,08,22,10,15,20.90
2016,08,22,10,16,20.90
2016,08,22,10,17,22.50
2016,08,22,10,18,17.70
2016,08,22,10,19,17.70
2016,08,22,10,20,20.90
2016,08,22,10,21,17.70
2016,08,22,10,22,14.50
2016,08,22,10,23,16.10
2016,08,22,10,24,20.90
2016,08,22,10,25,14.50
2016,08,22,10,26,19.30
2016,08,22,10,27,22.50
2016,08,22,10,28,17.70
2016,08,22,10,29,19.30
2016,08,22,10,30,19.30
2016,08,22,10,31,12.90
2016,08,22,10,32,16.10
2016,08,22,10,33,17.70
2016,08,22,10,34,20.90
2016,08,22,10,35,17.70
2016,08,22,10,36,14.50
2016,08,22,10,37,12.90
2016,08,22,10,38,17.70
2016,08,22,10,39,12.90
2016,08,22,10,40,20.90
2016,08,22,10,41,17.70
2016,08,22,10,42,14.50
2016,08,22,10,43,19.30
2016,08,22,10,44,17.70
2016,08,22,10,45,14.50
2016,08,22,10,46,17.70
2016,08,22,10,47,16.10
2016,08,22,10,48,20.90
2016,08,22,10,49,20.90
2016,08,22,10,50,20.90
2016,08,22,10,51,27.40
2016,08,22,10,52,17.70
2016,08,22,10,53,17.70
2016,08,22,10,54,16.10
2016,08,22,10,55,12.90
2016,08,22,10,56,19.30
2016,08,22,10,57,17.70
2016,08,22,10,58,17.70
2016,08,22,10,59,22.50
2016,08,22,11,00,20.90
2016,08,22,11,01,20.90
2016,08,22,11,02,17.70
2016,08,22,11,03,19.30
2016,08,22,11,04,19.30
2016,08,22,11,05,16.10
2016,08,22,11,06,19.30
2016,08,22,11,07,20.90
2016,08,22,11,08,17.70
2016,08,22,11,09,20.90
2016,08,22,11,10,20.90
2016,08,22,11,11,12.90
2016,08,22,11,12,14.50
2016,08,22,11,13,17.70
2016,08,22,11,14,14.50
2016,08,22,11,15,20.90
2016,08,22,11,16,14.50
2016,08,22,11,17,14.50
2016,08,22,11,18,17.70
2016,08,22,11,19,19.30
2016,08,22,11,20,17.70
2016,08,22,11,21,16.10
2016,08,22,11,22,22.50
2016,08,22,11,23,19.30
2016,08,22,11,24,12.90
2016,08,22,11,25,12.90
2016,08,22,11,26,12.90
2016,08,22,11,27,14.50
2016,08,22,11,28,19.30
2016,08,22,11,29,14.50
2016,08,22,11,30,14.50
2016,08,22,11,31,16.10
2016,08,22,11,32,17.70
2016,08,22,11,33,14.50
2016,08,22,11,34,16.10
2016,08,22,11,35,16.10
2016,08,22,11,36,24.20
2016,08,22,11,37,20.90
2016,08,22,11,38,20.90
2016,08,22,11,39,20.90
2016,08,22,11,40,19.30
2016,08,22,11,41,24.20
2016,08,22,11,42,20.90
2016,08,22,11,43,19.30
2016,08,22,11,44,17.70
2016,08,22,11,45,17.70
2016,08,22,11,46,22.50
2016,08,22,11,47,19.30
2016,08,22,11,48,20.90
2016,08,22,11,49,24.20
2016,08,22,11,50,20.90
2016,08,22,11,51,19.30
2016,08,22,11,52,17.70
2016,08,22,11,53,17.70
2016,08,22,11,54,17.70
2016,08,22,11,55,17.70
2016,08,22,11,56,8.10
2016,08,22,11,57,17.70
2016,08,22,11,58,16.10
2016,08,22,11,59,12.90
2016,08,22,12,00,14.50
2016,08,22,12,01,12.90
2016,08,22,12,02,19.30
2016,08,22,12,03,19.30
2016,08,22,12,04,12.90
2016,08,22,12,05,16.10
2016,08,22,12,06,17.70
2016,08,22,12,07,12.90
2016,08,22,12,08,20.90
2016,08,22,12,09,12.90
2016,08,22,12,10,16.10
2016,08,22,12,11,19.30
2016,08,22,12,12,16.10
2016,08,22,12,13,17.70
2016,08,22,12,14,20.90
2016,08,22,12,15,19.30
2016,08,22,12,16,14.50
2016,08,22,12,17,19.30
2016,08,22,12,18,20.90
2016,08,22,12,19,16.10
2016,08,22,12,20,12.90
2016,08,22,12,21,14.50
2016,08,22,12,22,16.10
2016,08,22,12,23,19.30
2016,08,22,12,24,19.30
2016,08,22,12,25,16.10
2016,08,22,12,26,17.70
2016,08,22,12,27,17.70
2016,08,22,12,28,24.20
2016,08,22,12,29,20.90
2016,08,22,12,30,20.90
2016,08,22,12,31,17.70
2016,08,22,12,32,19.30
2016,08,22,12,33,17.70
2016,08,22,12,34,22.50
2016,08,22,12,35,22.50
2016,08,22,12,36,19.30
2016,08,22,12,37,20.90
2016,08,22,12,38,8.10
2016,08,22,12,39,17.70
2016,08,22,12,40,14.50
2016,08,22,12,41,14.50
2016,08,22,12,42,12.90
2016,08,22,12,43,17.70
2016,08,22,12,44,19.30
2016,08,22,12,45,16.10
2016,08,22,12,46,22.50
2016,08,22,12,47,19.30
2016,08,22,12,48,16.10
2016,08,22,12,49,14.50
2016,08,22,12,50,12.90
2016,08,22,12,51,24.20
2016,08,22,12,52,19.30
2016,08,22,12,53,17.70
2016,08,22,12,54,22.50
2016,08,22,12,55,12.90
2016,08,22,12,56,16.10
2016,08,22,12,57,12.90
2016,08,22,12,58,14.50
2016,08,22,12,59,12.90
2016,08,22,13,00,9.60
2016,08,22,13,01,19.30
2016,08,22,13,02,19.30
2016,08,22,13,03,20.90
2016,08,22,13,04,12.90
2016,08,22,13,05,14.50
2016,08,22,13,06,17.70
2016,08,22,13,07,16.10
2016,08,22,13,08,16.10
2016,08,22,13,09,20.90
2016,08,22,13,10,17.70
2016,08,22,13,11,14.50
2016,08,22,13,12,14.50
2016,08,22,13,13,16.10
2016,08,22,13,14,20.90
2016,08,22,13,15,16.10
2016,08,22,13,16,24.20
2016,08,22,13,17,17.70
2016,08,22,13,18,17.70
2016,08,22,13,19,17.70
2016,08,22,13,20,12.90
2016,08,22,13,21,20.90
2016,08,22,13,22,20.90
2016,08,22,13,23,20.90
2016,08,22,13,24,19.30
2016,08,22,13,25,16.10
2016,08,22,13,26,16.10
2016,08,22,13,27,17.70
2016,08,22,13,28,19.30
2016,08,22,13,29,20.90
2016,08,22,13,30,12.90
2016,08,22,13,31,17.70
2016,08,22,13,32,17.70
2016,08,22,13,33,12.90
2016,08,22,13,34,17.70
2016,08,22,13,35,14.50
2016,08,22,13,36,14.50
2016,08,22,13,37,12.90
2016,08,22,13,38,16.10
2016,08,22,13,39,19.30
2016,08,22,13,40,14.50
2016,08,22,13,41,14.50
2016,08,22,13,42,16.10
2016,08,22,13,43,19.30
2016,08,22,13,44,19.30
2016,08,22,13,45,20.90
2016,08,22,13,46,20.90
2016,08,22,13,47,20.90
2016,08,22,13,48,20.90
2016,08,22,13,49,25.70
2016,08,22,13,50,17.70
2016,08,22,13,51,22.50
2016,08,22,13,52,20.90
2016,08,22,13,53,19.30
2016,08,22,13,54,14.50
2016,08,22,13,55,14.50
2016,08,22,13,56,12.90
2016,08,22,13,57,24.20
2016,08,22,13,58,19.30
2016,08,22,13,59,16.10
2016,08,22,14,00,12.90
2016,08,22,14,01,17.70
2016,08,22,14,02,17.70
2016,08,22,14,03,14.50
2016,08,22,14,04,17.70
2016,08,22,14,05,16.10
2016,08,22,14,06,22.50
2016,08,22,14,07,22.50
2016,08,22,14,08,19.30
2016,08,22,14,09,19.30
2016,08,22,14,10,16.10
2016,08,22,14,11,19.30
2016,08,22,14,12,9.60
2016,08,22,14,13,8.10
2016,08,22,14,14,8.10
2016,08,22,14,15,8.10
2016,08,22,14,16,9.60
2016,08,22,14,17,16.10
2016,08,22,14,18,14.50
2016,08,22,14,19,17.70
2016,08,22,14,20,20.90
2016,08,22,14,21,16.10
2016,08,22,14,22,20.90
2016,08,22,14,23,19.30
2016,08,22,14,24,16.10
2016,08,22,14,25,16.10
2016,08,22,14,26,20.90
2016,08,22,14,27,19.30
2016,08,22,14,28,12.90
2016,08,22,14,29,8.10
2016,08,22,14,30,12.90
2016,08,22,14,31,16.10
2016,08,22,14,32,16.10
2016,08,22,14,33,14.50
2016,08,22,14,34,17.70
2016,08,22,14,35,17.70
2016,08,22,14,36,12.90
2016,08,22,14,37,17.70
2016,08,22,14,38,19.30
2016,08,22,14,39,22.50
2016,08,22,14,40,14.50
2016,08,22,14,41,19.30
2016,08,22,14,42,22.50
2016,08,22,14,43,14.50
2016,08,22,14,44,17.70
2016,08,22,14,45,17.70
2016,08,22,14,46,12.90
2016,08,22,14,47,17.70
2016,08,22,14,48,17.70
2016,08,22,14,49,12.90
2016,08,22,14,50,16.10
2016,08,22,14,51,17.70
2016,08,22,14,52,14.50
2016,08,22,14,53,19.30
2016,08,22,14,54,19.30
2016,08,22,14,55,17.70
2016,08,22,14,56,19.30
2016,08,22,14,57,16.10
2016,08,22,14,58,12.90
2016,08,22,14,59,12.90
2016,08,22,15,00,19.30
2016,08,22,15,01,17.70
2016,08,22,15,02,12.90
2016,08,22,15,03,12.90
2016,08,22,15,04,14.50
2016,08,22,15,05,17.70
2016,08,22,15,06,17.70
2016,08,22,15,07,16.10
2016,08,22,15,08,8.10
2016,08,22,15,09,17.70
2016,08,22,15,10,14.50
2016,08,22,15,11,16.10
2016,08,22,15,12,16.10
2016,08,22,15,13,16.10
2016,08,22,15,14,17.70
2016,08,22,15,15,12.90
2016,08,22,15,16,14.50
2016,08,22,15,17,14.50
2016,08,22,15,18,16.10
2016,08,22,15,19,12.90
2016,08,22,15,20,12.90
2016,08,22,15,21,16.10
2016,08,22,15,22,16.10
2016,08,22,15,23,16.10
2016,08,22,15,24,14.50
2016,08,22,15,25,6.40
2016,08,22,15,26,14.50
2016,08,22,15,27,16.10
2016,08,22,15,28,12.90
2016,08,22,15,29,14.50
2016,08,22,15,30,12.90
2016,08,22,15,31,14.50
2016,08,22,15,32,14.50
2016,08,22,15,33,11.30
2016,08,22,15,34,14.50
2016,08,22,15,35,16.10
2016,08,22,15,36,20.90
2016,08,22,15,37,16.10
2016,08,22,15,38,14.50
2016,08,22,15,39,17.70
2016,08,22,15,40,12.90
2016,08,22,15,41,16.10
2016,08,22,15,42,20.90
2016,08,22,15,43,17.70
2016,08,22,15,44,14.50
2016,08,22,15,45,9.60
2016,08,22,15,46,14.50
2016,08,22,15,47,12.90
2016,08,22,15,48,14.50
2016,08,22,15,49,14.50
2016,08,22,15,50,14.50
2016,08,22,15,51,16.10
2016,08,22,15,52,16.10
2016,08,22,15,53,19.30
2016,08,22,15,54,14.50
2016,08,22,15,55,16.10
2016,08,22,15,56,17.70
2016,08,22,15,57,17.70
2016,08,22,15,58,14.50
2016,08,22,15,59,14.50
2016,08,22,16,00,11.30
2016,08,22,16,01,16.10
2016,08,22,16,02,17.70
2016,08,22,16,03,17.70
2016,08,22,16,04,19.30
2016,08,22,16,05,11.30
2016,08,22,16,06,8.10
2016,08,22,16,07,17.70
2016,08,22,16,08,12.90
2016,08,22,16,09,14.50
2016,08,22,16,10,12.90
2016,08,22,16,11,12.90
2016,08,22,16,12,14.50
2016,08,22,16,13,16.10
2016,08,22,16,14,14.50
2016,08,22,16,15,12.90
2016,08,22,16,16,12.90
2016,08,22,16,17,16.10
2016,08,22,16,18,16.10
2016,08,22,16,19,14.50
2016,08,22,16,20,14.50
2016,08,22,16,21,12.90
2016,08,22,16,22,16.10
2016,08,22,16,23,14.50
2016,08,22,16,24,16.10
2016,08,22,16,25,14.50
2016,08,22,16,26,14.50
2016,08,22,16,27,12.90
2016,08,22,16,28,16.10
2016,08,22,16,29,9.60
2016,08,22,16,30,12.90
2016,08,22,16,31,12.90
2016,08,22,16,32,16.10
2016,08,22,16,33,14.50
2016,08,22,16,34,16.10
2016,08,22,16,35,12.90
2016,08,22,16,36,14.50
2016,08,22,16,37,9.60
2016,08,22,16,38,9.60
2016,08,22,16,39,11.30
2016,08,22,16,40,6.40
2016,08,22,16,41,8.10
2016,08,22,16,42,9.60
2016,08,22,16,43,9.60
2016,08,22,16,44,14.50
2016,08,22,16,45,11.30
2016,08,22,16,46,8.10
2016,08,22,16,47,11.30
2016,08,22,16,48,14.50
2016,08,22,16,49,14.50
2016,08,22,16,50,14.50
2016,08,22,16,51,16.10
2016,08,22,16,52,17.70
2016,08,22,16,53,16.10
2016,08,22,16,54,8.10
2016,08,22,16,55,8.10
2016,08,22,16,56,11.30
2016,08,22,16,57,12.90
2016,08,22,16,58,12.90
2016,08,22,16,59,14.50
2016,08,22,17,00,12.90
2016,08,22,17,01,8.10
2016,08,22,17,02,12.90
2016,08,22,17,03,9.60
2016,08,22,17,04,16.10
2016,08,22,17,05,12.90
2016,08,22,17,06,9.60
2016,08,22,17,07,12.90
2016,08,22,17,08,12.90
2016,08,22,17,09,9.60
2016,08,22,17,10,12.90
2016,08,22,17,11,11.30
2016,08,22,17,12,8.10
2016,08,22,17,13,12.90
2016,08,22,17,14,8.10
2016,08,22,17,15,6.40
2016,08,22,17,16,8.10
2016,08,22,17,17,14.50
2016,08,22,17,18,8.10
2016,08,22,17,19,11.30
2016,08,22,17,20,14.50
2016,08,22,17,21,9.60
2016,08,22,17,22,11.30
2016,08,22,17,23,12.90
2016,08,22,17,24,9.60
2016,08,22,17,25,11.30
2016,08,22,17,26,12.90
2016,08,22,17,27,12.90
2016,08,22,17,28,8.10
2016,08,22,17,29,12.90
2016,08,22,17,30,12.90
2016,08,22,17,31,14.50
2016,08,22,17,32,11.30
2016,08,22,17,33,14.50
2016,08,22,17,34,12.90
2016,08,22,17,35,11.30
2016,08,22,17,36,11.30
2016,08,22,17,37,4.80
2016,08,22,17,38,6.40
2016,08,22,17,39,9.60
2016,08,22,17,40,11.30
2016,08,22,17,41,9.60
2016,08,22,17,42,11.30
2016,08,22,17,43,16.10
2016,08,22,17,44,14.50
2016,08,22,17,45,11.30
2016,08,22,17,46,12.90
2016,08,22,17,47,11.30
2016,08,22,17,48,12.90
2016,08,22,17,49,12.90
2016,08,22,17,50,9.60
2016,08,22,17,51,9.60